Location: Unspecified
(45.3999°N, 88.1269°W)
Time: 05:29:09
(UTC-05:00)

Okean 3 - Visible Passes

Search period start: 27 June 2017 00:00
Search period end: 07 July 2017 00:00
Orbit: 578 x 602 km, 82.5° (Epoch: 26 June)

Date Brightness Start Highest point End Pass type
(mag) Time Alt. Az. Time Alt. Az. Time Alt. Az.
27 Jun 5.6 01:28:54 10° NNE 01:32:05 20° ENE 01:34:43 12° ESE visible
27 Jun 4.2 03:05:35 10° NNW 03:09:30 37° W 03:11:14 25° SW visible
28 Jun 5.1 01:36:46 10° NNE 01:40:29 29° ENE 01:42:36 19° ESE visible
28 Jun 4.7 03:14:08 10° NNW 03:17:38 25° W 03:19:09 20° WSW visible
29 Jun 4.4 01:44:47 10° N 01:48:50 41° ENE 01:50:33 27° SE visible
29 Jun 5.2 03:22:55 10° NW 03:25:44 18° W 03:27:04 15° WSW visible
30 Jun 3.7 01:52:55 10° N 01:57:08 62° E 01:58:30 39° SE visible
30 Jun 5.6 03:32:11 10° WNW 03:33:48 12° W 03:35:01 11° W visible
01 Jul 3.3 02:01:09 10° N 02:05:24 87° W 02:06:28 50° S visible
02 Jul 5.9 00:33:44 10° NE 00:35:56 14° ENE 00:37:55 11° E visible
02 Jul 3.6 02:09:28 10° NNW 02:13:37 58° W 02:14:27 47° SW visible
03 Jul 5.5 00:41:16 10° NNE 00:44:22 19° ENE 00:45:55 16° E visible
03 Jul 4.1 02:17:52 10° NNW 02:21:48 38° W 02:22:27 36° WSW visible
04 Jul 4.9 00:49:07 10° NNE 00:52:46 27° ENE 00:53:56 24° E visible
04 Jul 4.7 02:26:26 10° NNW 02:29:56 26° W 02:30:28 25° WSW visible
05 Jul 4.3 00:57:07 10° N 01:01:07 40° ENE 01:01:58 35° ESE visible
05 Jul 5.2 02:35:10 10° NW 02:38:02 18° W 02:38:30 18° W visible
06 Jul 3.6 01:05:14 10° N 01:09:25 60° E 01:10:01 53° ESE visible
06 Jul 5.6 02:44:22 10° WNW 02:46:06 12° W 02:46:33 12° W visible
